Regional Weather Roundup
Issued by NWS

Home | Current Version | Previous Version | Text Only | Print | Product List | Glossary On
Versions: 1 2 3 4 5 6 7 8 9 10 11 12 13 14 15 16 17 18 19 20 21 22 23 24 25 26 27 28 29 30 31 32 33 34 35 36 37 38 39 40 41 42 43 44 45 46 47 48 49 50
466
ASUS43 KTOP 170808
RWRKS

WEATHER ROUNDUP FOR KANSAS
NATIONAL WEATHER SERVICE GOODLAND KS
200 AM CST TUE JAN 17 2017

NOTE:  "FAIR" INDICATES FEW OR NO CLOUDS BELOW 12,000 FEET WITH NO
SIGNIFICANT WEATHER AND/OR OBSTRUCTIONS TO VISIBILITY.

KSZ001>006-013>018-027>032-041>047-170900-
NORTHWEST KANSAS

CITY           SKY/WX    TMP DP  RH WIND       PRES   REMARKS
GOODLAND       CLOUDY    24  21  88 W9        30.09S
HAYS           CLOUDY    33  30  88 NW8       30.08R
HILL CITY      PTCLDY    32  28  85 W8        30.08R
RUSSELL        CLOUDY    33  30  88 NW13      30.05R WCI  24
$$

KSZ061>065-074>080-084>089-170900-
SOUTHWEST KANSAS

CITY           SKY/WX    TMP DP  RH WIND       PRES   REMARKS
DODGE CITY     CLOUDY    33  31  92 NW9       30.10R
ELKHART          N/A     33  24  69 NW10        N/A  WCI  25
GARDEN CITY    CLOUDY    34  29  82 NW13      30.10R WCI  25
GREAT BEND     CLOUDY    34  31  88 NW10      30.07R WCI  26
LIBERAL        CLOUDY    36  30  80 NW10      30.11F WCI  28
PRATT          CLOUDY    31  29  92 NW7       30.07S
$$

KSZ066>073-081>083-090>101-170900-
SOUTHEAST KANSAS

CITY           SKY/WX    TMP DP  RH WIND       PRES   REMARKS
CHANUTE        CLOUDY    37  35  92 NW7       30.02S
HUTCHINSON     CLOUDY    35  32  88 NW9       30.06R
MEDICINE LODGE   N/A     35  32  88 NW7       30.09R
NEWTON         CLOUDY    33  33 100 NW9       30.04S FOG
PARSONS        CLOUDY    38  34  85 W7        30.04S
WICHITA INTL   DRIZZLE   35  34  96 NW12      30.05S WCI  27
WICHITA JABRA  CLOUDY    34  34 100 NW10      30.04F FOG     WCI  26
WICHITA MCCONL CLOUDY    35  33  94 NW8       30.05R
WINFIELD       CLOUDY    36  34  92 NW10      30.06S WCI  28
$$

KSZ007>012-019>026-033>040-048>060-102>105-170900-
NORTHEAST KANSAS

CITY           SKY/WX    TMP DP  RH WIND       PRES   REMARKS
CONCORDIA      CLOUDY    33  32  96 NW8       30.03S
EMPORIA        CLOUDY    34  33  96 NW9       30.02R FOG
LAWRENCE       CLOUDY    35  34  96 W10       30.01R WCI  27
MANHATTAN      CLOUDY    34  32  92 VRB5      30.03R
MARYSVILLE     CLOUDY    32  32 100 NW9       30.01R
OLATHE IND     CLOUDY    35  34  96 W9        29.99R
OLATHE EXE     CLOUDY    34  34 100 W9        29.98R
SALINA           N/A    N/A N/A N/A MISG        N/A
TOPEKA BILLARD CLOUDY    35  32  88 W8        30.02R
TOPEKA FORBES  CLOUDY    36  33  89 W10       30.01R WCI  28
$$




USA.gov is the U.S. government's official web portal to all federal, state and local government web resources and services.